Zurück zum Katalog

SL-8 DEB

AktivLEO
NORAD 21136·DEBRIS·🇷🇺 Russia

Gestartet Feb 12, 1991 von Plesetsk Cosmodrome

Loading…

Nächste Überflüge (nächste 24 Stunden)

TLE

AlterndSource: Space-Track

Epoche: Sep 11, 2026, 08:33 UTC

1 21136U 91009N   26254.35689353  .00000028  00000-0  48501-3 0  9994
2 21136  74.0043  15.9132 0287059 294.5365  91.6649 11.97342904554143

Verfolge SL-8 DEB in Echtzeit mit AllMySat

Download on the App Store